Tracking 27380 objects as of 6-Jun-2023
HD Live streaming from Space Station
objects crossing your sky now

TIROS N DEB

Track TIROS N DEB now!
10-day predictions


NORAD ID: 11062
Int'l Code: 1978-096C
Perigee: 417.0 km
Apogee: 425.6 km
Inclination: 98.8 °
Period: 92.9 minutes
Semi major axis: 6792 km
RCS: 0.056 m2 (small)
Launch date: October 13, 1978
Source: United States (US)
Launch site: AIR FORCE WESTERN TEST RANGE (AFWTR)

Note: This is SATELLITE DEBRIS
Your satellite tracking list
Your tracking list is empty




NASA's NSSDC Master Catalog

Two Line Element Set (TLE):
1 11062U 78096C   23156.46423100  .00175997  00000-0  29798-2 0  9992
2 11062  98.8381 340.7222 0006302 176.3949 183.7345 15.50887936371047
Source of the keplerian elements: AFSPC